Time,TemperatureF,DewpointF,PressureIn,WindDirection,WindDirectionDegrees,WindSpeedMPH,WindSpeedGustMPH,Humidity,HourlyPrecipIn,Conditions,Clouds,dailyrainin,SoftwareType,DateUTC
2013-12-18 00:02:00,12.0,1.0,-100.00,North,355,0.0,0.0,63,-99.99,,,-99.99,,2013-12-18 06:02:00,
2013-12-18 00:42:00,10.0,1.0,-100.00,North,355,0.0,0.0,66,-99.99,,,-99.99,,2013-12-18 06:42:00,
2013-12-18 00:53:00,10.0,1.0,-100.00,North,355,0.0,0.0,66,-99.99,,,-99.99,,2013-12-18 06:53:00,
2013-12-18 01:02:00,10.0,1.0,-100.00,North,355,0.0,0.0,66,-99.99,,,-99.99,,2013-12-18 07:02:00,
2013-12-18 01:11:00,7.0,-1.0,-100.00,North,355,0.0,0.0,70,-99.99,,,-99.99,,2013-12-18 07:11:00,
2013-12-18 01:42:00,7.0,-1.0,-100.00,North,355,0.0,0.0,70,-99.99,,,-99.99,,2013-12-18 07:42:00,
2013-12-18 01:53:00,7.0,-1.0,-100.00,North,355,0.0,0.0,70,-99.99,,,-99.99,,2013-12-18 07:53:00,
2013-12-18 02:02:00,7.0,-1.0,-100.00,North,355,0.0,0.0,70,-99.99,,,-99.99,,2013-12-18 08:02:00,
2013-12-18 02:10:00,5.0,-1.0,-100.00,North,355,0.0,0.0,74,-99.99,,,-99.99,,2013-12-18 08:10:00,
2013-12-18 02:42:00,5.0,-1.0,-100.00,North,355,0.0,0.0,74,-99.99,,,-99.99,,2013-12-18 08:42:00,
2013-12-18 02:52:00,5.0,-1.0,-100.00,North,355,0.0,0.0,74,-99.99,,,-99.99,,2013-12-18 08:52:00,
2013-12-18 03:02:00,5.0,-1.0,-100.00,North,355,0.0,0.0,74,-99.99,,,-99.99,,2013-12-18 09:02:00,
2013-12-18 03:10:00,5.0,0.0,-100.00,North,355,0.0,0.0,77,-99.99,,,-99.99,,2013-12-18 09:10:00,
2013-12-18 03:43:00,5.0,0.0,-100.00,North,355,0.0,0.0,77,-99.99,,,-99.99,,2013-12-18 09:43:00,
2013-12-18 03:53:00,5.0,0.0,-100.00,North,355,0.0,0.0,77,-99.99,,,-99.99,,2013-12-18 09:53:00,
2013-12-18 04:03:00,5.0,0.0,-100.00,North,355,0.0,0.0,77,-99.99,,,-99.99,,2013-12-18 10:03:00,
2013-12-18 04:12:00,5.0,0.0,-100.00,North,355,0.0,0.0,79,-99.99,,,-99.99,,2013-12-18 10:12:00,
2013-12-18 04:42:00,5.0,0.0,-100.00,North,355,0.0,0.0,79,-99.99,,,-99.99,,2013-12-18 10:42:00,
2013-12-18 04:52:00,5.0,0.0,-100.00,North,355,0.0,0.0,79,-99.99,,,-99.99,,2013-12-18 10:52:00,
2013-12-18 05:03:00,5.0,0.0,-100.00,North,355,0.0,0.0,79,-99.99,,,-99.99,,2013-12-18 11:03:00,
2013-12-18 05:10:00,9.0,4.0,-100.00,North,355,0.0,0.0,81,-99.99,,,-99.99,,2013-12-18 11:10:00,
2013-12-18 05:42:00,9.0,4.0,-100.00,North,355,0.0,0.0,81,-99.99,,,-99.99,,2013-12-18 11:42:00,
2013-12-18 05:53:00,9.0,4.0,-100.00,North,355,0.0,0.0,81,-99.99,,,-99.99,,2013-12-18 11:53:00,
2013-12-18 06:02:00,9.0,4.0,-100.00,North,355,0.0,0.0,81,-99.99,,,-99.99,,2013-12-18 12:02:00,
2013-12-18 06:11:00,10.0,5.0,-100.00,North,355,0.0,0.0,79,-99.99,,,-99.99,,2013-12-18 12:11:00,
2013-12-18 06:42:00,10.0,5.0,-100.00,North,355,0.0,0.0,79,-99.99,,,-99.99,,2013-12-18 12:42:00,
2013-12-18 06:52:00,10.0,5.0,-100.00,North,355,0.0,0.0,79,-99.99,,,-99.99,,2013-12-18 12:52:00,
2013-12-18 07:01:00,10.0,5.0,-100.00,North,355,0.0,0.0,79,-99.99,,,-99.99,,2013-12-18 13:01:00,
2013-12-18 07:11:00,9.0,4.0,-100.00,North,355,0.0,0.0,79,-99.99,,,-99.99,,2013-12-18 13:11:00,
2013-12-18 07:42:00,9.0,4.0,-100.00,North,355,0.0,0.0,79,-99.99,,,-99.99,,2013-12-18 13:42:00,
2013-12-18 07:52:00,9.0,4.0,-100.00,North,355,0.0,0.0,79,-99.99,,,-99.99,,2013-12-18 13:52:00,
2013-12-18 08:02:00,9.0,4.0,-100.00,North,355,0.0,0.0,79,-99.99,,,-99.99,,2013-12-18 14:02:00,
2013-12-18 08:11:00,10.0,5.0,-100.00,North,355,0.0,0.0,81,-99.99,,,-99.99,,2013-12-18 14:11:00,
2013-12-18 08:42:00,10.0,5.0,-100.00,North,355,0.0,0.0,81,-99.99,,,-99.99,,2013-12-18 14:42:00,
2013-12-18 08:52:00,10.0,5.0,-100.00,North,355,0.0,0.0,81,-99.99,,,-99.99,,2013-12-18 14:52:00,
2013-12-18 09:02:00,10.0,5.0,-100.00,North,355,0.0,0.0,81,-99.99,,,-99.99,,2013-12-18 15:02:00,
2013-12-18 09:11:00,13.0,8.0,-100.00,North,355,0.0,0.0,79,-99.99,,,-99.99,,2013-12-18 15:11:00,
2013-12-18 09:44:00,13.0,8.0,-100.00,North,355,0.0,0.0,79,-99.99,,,-99.99,,2013-12-18 15:44:00,
2013-12-18 09:53:00,13.0,8.0,-100.00,North,355,0.0,0.0,79,-99.99,,,-99.99,,2013-12-18 15:53:00,
2013-12-18 10:04:00,13.0,8.0,-100.00,North,355,0.0,0.0,79,-99.99,,,-99.99,,2013-12-18 16:04:00,
2013-12-18 10:42:00,16.0,9.0,-100.00,North,355,0.0,0.0,73,-99.99,,,-99.99,,2013-12-18 16:42:00,
2013-12-18 10:53:00,16.0,9.0,-100.00,North,355,0.0,0.0,73,-99.99,,,-99.99,,2013-12-18 16:53:00,
2013-12-18 11:02:00,16.0,9.0,-100.00,North,355,0.0,0.0,73,-99.99,,,-99.99,,2013-12-18 17:02:00,
2013-12-18 11:10:00,24.0,11.0,-100.00,North,355,0.0,0.0,56,-99.99,,,-99.99,,2013-12-18 17:10:00,
2013-12-18 11:42:00,24.0,11.0,-100.00,North,355,0.0,0.0,56,-99.99,,,-99.99,,2013-12-18 17:42:00,
2013-12-18 11:52:00,24.0,11.0,-100.00,North,355,0.0,0.0,56,-99.99,,,-99.99,,2013-12-18 17:52:00,
2013-12-18 12:02:00,24.0,11.0,-100.00,North,355,0.0,0.0,56,-99.99,,,-99.99,,2013-12-18 18:02:00,
2013-12-18 12:42:00,29.0,11.0,-100.00,North,355,0.0,0.0,47,-99.99,,,-99.99,,2013-12-18 18:42:00,
2013-12-18 12:52:00,29.0,11.0,-100.00,North,355,0.0,0.0,47,-99.99,,,-99.99,,2013-12-18 18:52:00,
2013-12-18 13:02:00,29.0,11.0,-100.00,North,355,0.0,0.0,47,-99.99,,,-99.99,,2013-12-18 19:02:00,
2013-12-18 13:10:00,32.0,12.0,-100.00,North,355,0.0,0.0,43,-99.99,,,-99.99,,2013-12-18 19:10:00,
2013-12-18 13:42:00,32.0,12.0,-100.00,North,355,0.0,0.0,43,-99.99,,,-99.99,,2013-12-18 19:42:00,
2013-12-18 13:52:00,32.0,12.0,-100.00,North,355,0.0,0.0,43,-99.99,,,-99.99,,2013-12-18 19:52:00,
2013-12-18 14:02:00,32.0,12.0,-100.00,North,355,0.0,0.0,43,-99.99,,,-99.99,,2013-12-18 20:02:00,
2013-12-18 14:11:00,33.0,14.0,-100.00,North,355,0.0,0.0,45,-99.99,,,-99.99,,2013-12-18 20:11:00,
2013-12-18 14:42:00,33.0,14.0,-100.00,North,355,0.0,0.0,45,-99.99,,,-99.99,,2013-12-18 20:42:00,
2013-12-18 14:53:00,33.0,14.0,-100.00,North,355,0.0,0.0,45,-99.99,,,-99.99,,2013-12-18 20:53:00,
2013-12-18 15:02:00,33.0,14.0,-100.00,North,355,0.0,0.0,45,-99.99,,,-99.99,,2013-12-18 21:02:00,
2013-12-18 15:10:00,35.0,17.0,-100.00,North,355,0.0,0.0,47,-99.99,,,-99.99,,2013-12-18 21:10:00,
2013-12-18 15:43:00,35.0,17.0,-100.00,North,355,0.0,0.0,47,-99.99,,,-99.99,,2013-12-18 21:43:00,
2013-12-18 15:53:00,35.0,17.0,-100.00,North,355,0.0,0.0,47,-99.99,,,-99.99,,2013-12-18 21:53:00,
2013-12-18 16:03:00,35.0,17.0,-100.00,North,355,0.0,0.0,47,-99.99,,,-99.99,,2013-12-18 22:03:00,
2013-12-18 16:11:00,35.0,18.0,-100.00,North,355,0.0,0.0,50,-99.99,,,-99.99,,2013-12-18 22:11:00,
2013-12-18 16:43:00,35.0,18.0,-100.00,North,355,0.0,0.0,50,-99.99,,,-99.99,,2013-12-18 22:43:00,
2013-12-18 16:53:00,35.0,18.0,-100.00,North,355,0.0,0.0,50,-99.99,,,-99.99,,2013-12-18 22:53:00,
2013-12-18 17:02:00,35.0,18.0,-100.00,North,355,0.0,0.0,50,-99.99,,,-99.99,,2013-12-18 23:02:00,
2013-12-18 17:10:00,33.0,19.0,-100.00,North,355,0.0,0.0,58,-99.99,,,-99.99,,2013-12-18 23:10:00,
2013-12-18 17:42:00,33.0,19.0,-100.00,North,355,0.0,0.0,58,-99.99,,,-99.99,,2013-12-18 23:42:00,
2013-12-18 17:53:00,33.0,19.0,-100.00,North,355,0.0,0.0,58,-99.99,,,-99.99,,2013-12-18 23:53:00,
2013-12-18 18:02:00,33.0,19.0,-100.00,North,355,0.0,0.0,58,-99.99,,,-99.99,,2013-12-19 00:02:00,
2013-12-18 18:10:00,31.0,22.0,-100.00,North,355,0.0,0.0,69,-99.99,,,-99.99,,2013-12-19 00:10:00,
2013-12-18 18:42:00,31.0,22.0,-100.00,North,355,0.0,0.0,69,-99.99,,,-99.99,,2013-12-19 00:42:00,
2013-12-18 18:52:00,31.0,22.0,-100.00,North,355,0.0,0.0,69,-99.99,,,-99.99,,2013-12-19 00:52:00,
2013-12-18 19:01:00,31.0,22.0,-100.00,North,355,0.0,0.0,69,-99.99,,,-99.99,,2013-12-19 01:01:00,
2013-12-18 19:42:00,31.0,23.0,-100.00,North,355,0.0,0.0,73,-99.99,,,-99.99,,2013-12-19 01:42:00,
2013-12-18 19:52:00,31.0,23.0,-100.00,North,355,0.0,0.0,73,-99.99,,,-99.99,,2013-12-19 01:52:00,
2013-12-18 20:01:00,31.0,23.0,-100.00,North,355,0.0,0.0,73,-99.99,,,-99.99,,2013-12-19 02:01:00,
2013-12-18 20:11:00,31.0,23.0,-100.00,North,355,0.0,0.0,73,-99.99,,,-99.99,,2013-12-19 02:11:00,
2013-12-18 20:52:00,30.0,24.0,-100.00,North,0,0.0,0.0,78,-99.99,,,-99.99,,2013-12-19 02:52:00,
2013-12-18 21:02:00,30.0,24.0,-100.00,North,0,0.0,0.0,78,-99.99,,,-99.99,,2013-12-19 03:02:00,
2013-12-18 21:43:00,29.0,24.0,-100.00,North,0,0.0,0.0,81,-99.99,,,-99.99,,2013-12-19 03:43:00,
2013-12-18 21:54:00,29.0,24.0,-100.00,North,0,0.0,0.0,81,-99.99,,,-99.99,,2013-12-19 03:54:00,
2013-12-18 22:03:00,29.0,24.0,-100.00,North,0,0.0,0.0,81,-99.99,,,-99.99,,2013-12-19 04:03:00,
2013-12-18 22:11:00,29.0,25.0,-100.00,North,0,0.0,0.0,86,-99.99,,,-99.99,,2013-12-19 04:11:00,
2013-12-18 22:43:00,29.0,25.0,-100.00,North,0,0.0,0.0,86,-99.99,,,-99.99,,2013-12-19 04:43:00,
2013-12-18 22:53:00,29.0,25.0,-100.00,North,0,0.0,0.0,86,-99.99,,,-99.99,,2013-12-19 04:53:00,
2013-12-18 23:03:00,29.0,25.0,-100.00,North,0,0.0,0.0,86,-99.99,,,-99.99,,2013-12-19 05:03:00,
2013-12-18 23:42:00,27.0,24.0,-100.00,North,355,0.0,0.0,89,-99.99,,,-99.99,,2013-12-19 05:42:00,
2013-12-18 23:52:00,27.0,24.0,-100.00,North,355,0.0,0.0,89,-99.99,,,-99.99,,2013-12-19 05:52:00,